Find Starlink 5291

NORAD ID: 55273 Int'l Des: 2023-010 Owner: SPXS Country: US Constellation: starlink operational
LEOCIRCULAR

实时位置

正在加载3D地球...

关于 Starlink 5291

正在加载描述...

即将过境

Passes for default location (London). Set your location on the main map for personalized predictions.

高度历史

Loading altitude history...

两行轨道根数

1 55273U 23010E 26127.53284502 -.00000223 00000-0 -10936-4 0 9997
2 55273 69.9998 255.9476 0002972 270.5083 89.5735 14.98332593181607
Epoch: May 7, 2026 • Age: 8 hours

当前状态

高度 579.6 km
速度 7.57 km/s
星下点 -24.03°S, 69.84°E
发射日期 Jan 19, 2023
运行时间 3.2 years
类型 internet

技术详情

分类 Payload
质量 305.00 kg
干质量 290.00 kg
总质量 305.00 kg
长度 0.20 m
直径 2.80 m
跨度 9.00 m
形状 Box + pan
制造商 SPXS
平台类型 Starlink
阶段状态 In Orbit
所有者/国家 SPXS/US

Most Searched